• în România
  • Lista ţărilor
  • Pe 7 zile
  • Temperatura apei
  • Hartă satelitară
  • Meteo pe hartă
  • Widget-uri
  • user-avatar
    Intrare

    Meteo pe oră la Malanje

    Astăzi, 29 Martie, Miercuri

    Timp Temperatura Precipitaţii Vânt Presiune Umiditate
    00:00 +21°C° 1,7 mm 1 m/s 664 mmHg 89%
    01:00 +21°C° 0 mm 1 m/s 664 mmHg 92%
    02:00 +21°C° 0,6 mm 1 m/s 664 mmHg 93%
    03:00 +21°C° 0,6 mm 1 m/s 664 mmHg 93%
    04:00 +20°C° 0,6 mm 1 m/s 664 mmHg 94%
    05:00 +21°C° 0,4 mm 1 m/s 664 mmHg 94%
    06:00 +21°C° 0,4 mm 1 m/s 665 mmHg 94%
    07:00 +22°C° 0 mm 1 m/s 665 mmHg 93%
    08:00 +23°C° 0,1 mm 2 m/s 665 mmHg 88%
    09:00 +24°C° 0,1 mm 3 m/s 666 mmHg 82%
    10:00 +25°C° 0,1 mm 3 m/s 666 mmHg 77%
    11:00 +26°C° 0,3 mm 3 m/s 666 mmHg 73%
    12:00 +27°C° 0,3 mm 3 m/s 665 mmHg 70%
    13:00 +28°C° 0,3 mm 3 m/s 665 mmHg 66%
    14:00 +28°C° 0,4 mm 2 m/s 664 mmHg 68%
    15:00 +28°C° 0,4 mm 2 m/s 664 mmHg 70%
    16:00 +28°C° 0,4 mm 2 m/s 663 mmHg 72%
    17:00 +26°C° 0,7 mm 2 m/s 663 mmHg 79%
    18:00 +24°C° 0,7 mm 2 m/s 663 mmHg 86%
    19:00 +21°C° 0,7 mm 2 m/s 663 mmHg 92%
    20:00 +21°C° 1,9 mm 2 m/s 664 mmHg 93%
    21:00 +21°C° 1,9 mm 2 m/s 664 mmHg 94%
    22:00 +21°C° 1,9 mm 1 m/s 665 mmHg 95%
    23:00 +21°C° 1,7 mm 1 m/s 665 mmHg 95%

    Mâine, 30 Martie, Joi

    Timp Temperatura Precipitaţii Vânt Presiune Umiditate
    00:00 +21°C° 1,7 mm 1 m/s 665 mmHg 94%
    01:00 +21°C° 1,7 mm 1 m/s 665 mmHg 94%
    02:00 +21°C° 0,5 mm 1 m/s 664 mmHg 95%
    03:00 +21°C° 0,5 mm 1 m/s 664 mmHg 96%
    04:00 +20°C° 0,5 mm 1 m/s 664 mmHg 96%
    05:00 +21°C° 0,9 mm 1 m/s 664 mmHg 96%
    06:00 +21°C° 0,9 mm 1 m/s 665 mmHg 96%
    07:00 +19°C° 0,9 mm 0 m/s 665 mmHg 95%
    08:00 +20°C° 1 mm 0 m/s 666 mmHg 93%
    09:00 +21°C° 1 mm 0 m/s 666 mmHg 90%
    10:00 +21°C° 1 mm 0 m/s 666 mmHg 87%
    11:00 +22°C° 0,5 mm 0 m/s 666 mmHg 84%
    12:00 +25°C° 0,5 mm 1 m/s 665 mmHg 80%
    13:00 +27°C° 0,5 mm 1 m/s 665 mmHg 77%
    14:00 +26°C° 2,5 mm 1 m/s 664 mmHg 82%
    15:00 +25°C° 2,5 mm 1 m/s 664 mmHg 87%
    16:00 +24°C° 2,5 mm 1 m/s 664 mmHg 92%
    17:00 +23°C° 2,4 mm 1 m/s 664 mmHg 93%
    18:00 +23°C° 2,4 mm 1 m/s 664 mmHg 95%
    19:00 +22°C° 2,4 mm 1 m/s 665 mmHg 97%
    20:00 +22°C° 1,2 mm 1 m/s 665 mmHg 97%
    21:00 +21°C° 1,2 mm 1 m/s 666 mmHg 98%
    22:00 +21°C° 1,2 mm 1 m/s 666 mmHg 98%
    23:00 +21°C° 1,4 mm 1 m/s 666 mmHg 98%

    Poimâine, 31 Martie, Vineri

    Timp Temperatura Precipitaţii Vânt Presiune Umiditate
    00:00 +21°C° 1,4 mm 1 m/s 666 mmHg 98%
    01:00 +20°C° 1,4 mm 1 m/s 665 mmHg 98%
    02:00 +20°C° 1 mm 1 m/s 665 mmHg 98%
    03:00 +18°C° 1 mm 0 m/s 665 mmHg 98%
    04:00 +18°C° 1 mm 0 m/s 665 mmHg 98%
    05:00 +21°C° 1,6 mm 1 m/s 665 mmHg 97%
    06:00 +21°C° 1,6 mm 1 m/s 666 mmHg 97%
    07:00 +21°C° 1,6 mm 1 m/s 666 mmHg 97%
    08:00 +21°C° 0,6 mm 1 m/s 667 mmHg 95%
    09:00 +22°C° 0,6 mm 1 m/s 667 mmHg 93%
    10:00 +21°C° 0,6 mm 2 m/s 668 mmHg 92%
    11:00 +23°C° 0,3 mm 2 m/s 667 mmHg 89%
    12:00 +23°C° 0,3 mm 1 m/s 667 mmHg 87%
    13:00 +23°C° 0,3 mm 1 m/s 666 mmHg 85%
    14:00 +23°C° 0,5 mm 1 m/s 666 mmHg 87%
    15:00 +23°C° 0,5 mm 1 m/s 665 mmHg 88%
    16:00 +22°C° 0,5 mm 1 m/s 665 mmHg 90%
    17:00 +21°C° 0,1 mm 1 m/s 665 mmHg 92%
    18:00 +20°C° 0,1 mm 1 m/s 665 mmHg 94%
    19:00 +17°C° 0,1 mm 0 m/s 665 mmHg 95%
    20:00 +19°C° 0,4 mm 1 m/s 665 mmHg 95%
    21:00 +20°C° 0,4 mm 1 m/s 666 mmHg 95%
    22:00 +19°C° 0,4 mm 2 m/s 667 mmHg 95%
    23:00 +19°C° 0,2 mm 2 m/s 666 mmHg 95%

    1 Aprilie, Sâmbătă

    Timp Temperatura Precipitaţii Vânt Presiune Umiditate
    00:00 +18°C° 0,2 mm 2 m/s 666 mmHg 96%
    01:00 +19°C° 0,2 mm 1 m/s 666 mmHg 96%
    02:00 +19°C° 0 mm 1 m/s 665 mmHg 95%
    03:00 +19°C° 0 mm 1 m/s 665 mmHg 95%
    04:00 +19°C° 0 mm 1 m/s 665 mmHg 94%
    05:00 +19°C° 0 mm 1 m/s 665 mmHg 94%
    06:00 +19°C° 0 mm 1 m/s 666 mmHg 93%
    07:00 +20°C° 0 mm 1 m/s 666 mmHg 92%
    08:00 +22°C° 0 mm 1 m/s 667 mmHg 83%
    09:00 +24°C° 0 mm 1 m/s 667 mmHg 74%
    10:00 +26°C° 0 mm 2 m/s 668 mmHg 66%
    11:00 +27°C° 0 mm 1 m/s 668 mmHg 62%
    12:00 +28°C° 0 mm 1 m/s 667 mmHg 58%
    13:00 +29°C° 0 mm 1 m/s 666 mmHg 54%
    14:00 +29°C° 0 mm 1 m/s 666 mmHg 54%
    15:00 +29°C° 0 mm 1 m/s 665 mmHg 55%
    16:00 +27°C° 0 mm 0 m/s 665 mmHg 56%
    17:00 +26°C° 0,1 mm 1 m/s 664 mmHg 64%
    18:00 +23°C° 0,1 mm 1 m/s 664 mmHg 72%
    19:00 +21°C° 0,1 mm 1 m/s 664 mmHg 81%
    20:00 +20°C° 0 mm 1 m/s 664 mmHg 82%
    21:00 +20°C° 0 mm 1 m/s 665 mmHg 83%
    22:00 +20°C° 0 mm 1 m/s 665 mmHg 85%
    23:00 +19°C° 0,1 mm 1 m/s 665 mmHg 86%

    2 Aprilie, Duminică

    Timp Temperatura Precipitaţii Vânt Presiune Umiditate
    00:00 +19°C° 0,1 mm 1 m/s 665 mmHg 87%
    01:00 +18°C° 0,1 mm 2 m/s 665 mmHg 89%
    02:00 +18°C° 0 mm 2 m/s 664 mmHg 90%
    03:00 +18°C° 0 mm 2 m/s 664 mmHg 91%
    04:00 +18°C° 0 mm 2 m/s 664 mmHg 92%
    05:00 +18°C° 0 mm 2 m/s 665 mmHg 91%
    06:00 +19°C° 0 mm 2 m/s 665 mmHg 91%
    07:00 +19°C° 0 mm 3 m/s 666 mmHg 90%
    08:00 +21°C° 0 mm 3 m/s 666 mmHg 84%
    09:00 +24°C° 0 mm 3 m/s 667 mmHg 78%
    10:00 +26°C° 0 mm 4 m/s 667 mmHg 72%
    11:00 +26°C° 0 mm 4 m/s 667 mmHg 69%
    12:00 +27°C° 0 mm 4 m/s 666 mmHg 66%
    13:00 +27°C° 0 mm 4 m/s 665 mmHg 63%
    14:00 +27°C° 0 mm 3 m/s 665 mmHg 64%
    15:00 +27°C° 0 mm 3 m/s 664 mmHg 65%
    16:00 +27°C° 0 mm 2 m/s 664 mmHg 66%
    17:00 +25°C° 0 mm 2 m/s 664 mmHg 73%
    18:00 +23°C° 0 mm 2 m/s 664 mmHg 79%
    19:00 +21°C° 0 mm 1 m/s 664 mmHg 85%
    20:00 +21°C° 0 mm 1 m/s 665 mmHg 87%
    21:00 +20°C° 0 mm 2 m/s 665 mmHg 89%
    22:00 +19°C° 0 mm 2 m/s 665 mmHg 90%
    23:00 +19°C° 0,4 mm 2 m/s 665 mmHg 92%

    3 Aprilie, Luni

    Timp Temperatura Precipitaţii Vânt Presiune Umiditate
    00:00 +19°C° 0,4 mm 2 m/s 664 mmHg 93%
    01:00 +19°C° 0,4 mm 2 m/s 664 mmHg 94%
    02:00 +19°C° 0 mm 2 m/s 664 mmHg 94%
    03:00 +18°C° 0 mm 2 m/s 664 mmHg 95%
    04:00 +18°C° 0 mm 2 m/s 664 mmHg 95%
    05:00 +19°C° 0 mm 2 m/s 664 mmHg 94%
    06:00 +19°C° 0 mm 2 m/s 665 mmHg 93%
    07:00 +20°C° 0 mm 2 m/s 665 mmHg 92%
    08:00 +22°C° 0,1 mm 3 m/s 666 mmHg 84%
    09:00 +25°C° 0,1 mm 4 m/s 666 mmHg 77%
    10:00 +27°C° 0,1 mm 4 m/s 667 mmHg 70%
    11:00 +27°C° 0,3 mm 4 m/s 666 mmHg 67%
    12:00 +28°C° 0,3 mm 4 m/s 665 mmHg 63%
    13:00 +29°C° 0,3 mm 4 m/s 665 mmHg 60%
    14:00 +29°C° 0,1 mm 4 m/s 664 mmHg 61%
    15:00 +29°C° 0,1 mm 3 m/s 664 mmHg 63%
    16:00 +29°C° 0,1 mm 3 m/s 664 mmHg 64%
    17:00 +27°C° 0,1 mm 3 m/s 664 mmHg 71%
    18:00 +25°C° 0,1 mm 2 m/s 664 mmHg 77%
    19:00 +23°C° 0,1 mm 2 m/s 664 mmHg 83%
    20:00 +21°C° 1,2 mm 2 m/s 664 mmHg 85%
    21:00 +21°C° 1,2 mm 2 m/s 664 mmHg 87%
    22:00 +20°C° 1,2 mm 2 m/s 665 mmHg 89%
    23:00 +21°C° 0,6 mm 1 m/s 664 mmHg 89%
    Arată mai mult